Regional Weather Roundup
Issued by NWS Upton, NY

Current Version | Previous Version | Graphics & Text | Print | Product List | Glossary Off
Versions: 1 2 3 4 5 6 7 8 9 10 11 12 13 14 15 16 17 18 19 20 21 22 23 24 25 26 27 28 29 30 31 32 33 34 35 36 37 38 39 40 41 42 43 44 45 46 47 48 49 50

000
ASUS41 KOKX 271305
RWROKX

REGIONAL WEATHER ROUNDUP
NATIONAL WEATHER SERVICE NEW YORK NY
900 AM EDT WED AUG 27 2014

NOTE: "FAIR" INDICATES FEW OR NO CLOUDS BELOW 12,000 FEET WITH NO
SIGNIFICANT WEATHER AND/OR OBSTRUCTIONS TO VISIBILITY.

NYZ071-072-176-178-NJZ106-104-271400-
NEW YORK CITY METRO AREA


CITY           SKY/WX    TMP DP  RH WIND       PRES   REMARKS
CENTRAL PARK   SUNNY     76  62  62 CALM      30.07S
LAGUARDIA APRT MOSUNNY   77  63  61 S7        30.03F
KENNEDY INTL   MOSUNNY   76  66  71 S8        30.06S
NEWARK/LIBERTY MOSUNNY   76  64  66 SW6       30.04F
BRNX BOT. GARD   N/A     79  63  57 SW1       30.05F
TETERBORO      SUNNY     75  64  68 S6        30.03F
$$

NYZ177-179-078>081-271400-
LONG ISLAND NEW YORK

CITY           SKY/WX    TMP DP  RH WIND       PRES   REMARKS
FARMINGDALE    SUNNY     74  66  76 S12       30.05F
ISLIP          MOSUNNY   75  66  73 S10       30.04S
SHIRLEY        SUNNY     75  65  70 S13       30.06S
WESTHAMPTON    SUNNY     75  65  70 SW8       30.07S
MONTAUK POINT    N/A     73  68  84 S7        30.06S
$$

NYZ052-065-067-271400-
HUDSON VALLEY

CITY           SKY/WX    TMP DP  RH WIND       PRES   REMARKS
WHITE PLAINS   SUNNY     75  64  68 SW3       30.04F
NEWBURGH       MOSUNNY   72  64  78 W10       30.05F
MONTGOMERY     SUNNY     70  63  78 SW8       30.04S
POUGHKEEPSIE   MOSUNNY   73  64  73 SW5       30.01S
ALBANY         PTSUNNY   72  63  73 VRB5      30.00F
$$

NJZ001-105-106-008-010-013-015-019>022-104-271400-
NEW JERSEY

CITY           SKY/WX    TMP DP  RH WIND       PRES   REMARKS
NEWARK/LIBERTY MOSUNNY   76  64  66 SW6       30.04F
TETERBORO      SUNNY     75  64  68 S6        30.03F
CALDWELL       SUNNY     73  63  70 SW5       30.04F
MORRISTOWN     SUNNY     73  66  78 CALM      30.05F
SOMERVILLE     SUNNY     72  65  78 CALM      30.04S
LINDEN         FAIR      79  68  68 CALM      30.06F
SUSSEX         SUNNY     72  65  78 VRB3      30.05F
ANDOVER          N/A     72  65  78 CALM      30.06F
TRENTON        SUNNY     71  63  75 S3        30.06S
MILLVILLE      SUNNY     72  66  81 SW3       30.08S
ATLANTIC CITY  SUNNY     73  64  73 W3        30.08S
WRIGHTSTOWN    SUNNY     72  64  78 S5        30.05S
TOMS RIVER     SUNNY     72  64  78 SW3       30.07F
BELMAR         SUNNY     70  61  73 S6        30.06F
$$

PAZ047>061-062-071-271400-
EASTERN PENNSYLVANIA

CITY           SKY/WX    TMP DP  RH WIND       PRES   REMARKS
PHILADELPHIA   MOSUNNY   73  64  73 SW6       30.07S
ALLENTOWN      SUNNY     72  63  73 SW3       30.06F
SCRANTON       PTSUNNY   68  61  78 CALM      30.07S
$$

CTZ002-004>006-009-010-012-RIZ004-006-007-MAZ004-011-015-271400-
SOUTHERN NEW ENGLAND
 IN CT

CITY           SKY/WX    TMP DP  RH WIND       PRES   REMARKS
BRADLEY INTL   PTSUNNY   74  64  71 S7        30.00F
HARTFORD       SUNNY     73  64  73 S5        30.01F
DANBURY        SUNNY     74  63  68 W7        30.04F
WTRBRY/OXFORD  MOSUNNY   72  63  73 CALM      30.06F
BRIDGEPORT     SUNNY     75  66  73 SW12      30.03S
MERIDEN          N/A     74  63  68 S8        30.02F
NEW HAVEN      SUNNY     75  65  70 SW9       30.03F
CHESTER        FAIR      73  66  78 S8        30.05S
GROTON         SUNNY     71  67  87 SW12      30.03F
WILLIMANTIC    SUNNY     70  62  76 CALM      30.03F

 IN RI

CITY           SKY/WX    TMP DP  RH WIND       PRES   REMARKS
PROVIDENCE     MOSUNNY   74  64  71 S3        30.03S
BLOCK ISLAND   SUNNY     72  64  78 SW15      30.05F
WESTERLY       SUNNY     72  66  81 SW13      30.05S

 IN MA

CITY           SKY/WX    TMP DP  RH WIND       PRES   REMARKS
BOSTON         MOSUNNY   77  62  59 SW10      29.98F
WORCESTER      SUNNY     72  62  71 SW9       30.02F
WESTFIELD      SUNNY     72  64  76 SE5       30.01S
PROVINCETOWN   SUNNY     72  64  78 SW14      30.00
NANTUCKET      FOG       68  67  96 S12       30.05S VSB 1/2
$$

ANZ330-335-338-340-345-350-353-355-271400-
COASTAL MARINE OBSERVATIONS


STATION/POSITION TIME  SKY/WX   TEMP    WIND        PRES    VSBY  WAVE
                                AIR SEA DIR/SP/G                  HT/PER
                 (UTC)          (F)     (DEG/KT/KT) (MB)    (MI)  (FT/S)
NY HARB ENTRANCE NOT AVBL
4S FIRE IS       NOT AVBL
23SW MTP         1300                                 N/A           3/ 9
HUDSON CANYON    1300            72 72  290/  4/  4 1018.1          5/13
EXECUTION ROCKS  1300            81 74  210/  6/  8   N/A
WESTERN LI SOUND 1300            73     220/  6/  8   N/A           0
CENTRAL LI SOUND 1200            71 73  200/ 12/ 14   N/A           0
EASTERN LI SOUND 1200            71 69  200/ 12/ 14   N/A
ROBBINS REEF     1300            72     170/  4/  6   N/A
$$


>>>>>>>>>>>>>>>>>>>>>>>>>>>> KEY <<<<<<<<<<<<<<<<<<<<<<<<<<<
>                                                          <
>     SKY/WX - SKY CONDITION/PRESENT WEATHER               <
>     TMP    - TEMPERATURE IN FAHRENHEIT                   <
>     DP     - DEWPOINT IN FAHRENHEIT                      <
>     RH     - RELATIVE HUMIDITY IN PERCENT                <
>     WIND   - DIRECTION AND SPEED IN MPH                  <
>     PRES   - MEAN SEA LEVEL PRESSURE IN INCHES OF HG     <
>     WCI    - WIND CHILL INDEX                            <
>     VSB    - VISIBILITY IN MILES                         <
>     HX     - HEAT INDEX                                  <
>     TC     - TEMPERATURE IN CELSIUS                      <
>     VRB    - VARIABLE WIND DIRECTION                     <
>                                                          <
>>>>>>>>>>>>>>>>>>>>>>>>>>>> KEY <<<<<<<<<<<<<<<<<<<<<<<<<<<




USA.gov is the U.S. government's official web portal to all federal, state and local government web resources and services.